Regional Weather Roundup
Issued by NWS

Home | Current Version | Previous Version | Text Only | Print | Product List | Glossary Off
Versions: 1 2 3 4 5 6 7 8 9 10 11 12 13 14 15 16 17 18 19 20 21 22 23 24 25 26 27 28 29 30 31 32 33 34 35 36 37 38 39 40 41 42 43 44 45 46 47 48 49 50

000
ASUS43 KLSX 171007
RWRMO

WEATHER SUMMARY FOR MISSOURI
NATIONAL WEATHER SERVICE SPRINGFIELD MO
400 AM CST SUN DEC 17 2017

NOTE: "FAIR" INDICATES FEW OR NO CLOUDS BELOW 12,000 FEET WITH NO
       SIGNIFICANT WEATHER AND/OR OBSTRUCTIONS TO VISIBILITY.
       CURRENT SKY AND/OR WEATHER CONDITIONS ARE NOT AVAILABLE FOR
       CHILLICOTHE AND FARMINGTON.

MOZ001>031-035>038-043-044-053-054-171100-
...NORTHERN AND WESTERN MISSOURI...

CITY           SKY/WX    TMP DP  RH WIND       PRES   REMARKS
KANSAS CTY INT LGT RAIN  44  36  73 S9        29.96F
KANSAS C DTWN  LGT RAIN  47  37  68 SW9G21    29.97S
LEE`S SUMMIT   LGT RAIN  45  34  65 SW10      29.98F
ST JOSEPH      LGT RAIN  45  33  63 S8        29.96F
CHILLICOTHE      N/A     46  28  49 S6        29.98F
KIRKSVILLE     CLOUDY    45  31  58 SW7       30.00F

$$
MOZ066>068-077>081-088>096-101>105-171100-
...SOUTHWEST MISSOURI...

CITY           SKY/WX    TMP DP  RH WIND       PRES   REMARKS
SPRINGFIELD    RAIN      41  40  96 S10       30.02F FOG
JOPLIN         LGT RAIN  42  42 100 SE5       30.02S FOG

$$
MOZ032>034-039>042-045>050-055>058-069>072-171100-
...CENTRAL MISSOURI...

CITY           SKY/WX    TMP DP  RH WIND       PRES   REMARKS
COLUMBIA       CLOUDY    45  29  53 S8        30.03F
JEFFERSON CITY CLOUDY    44  30  57 SE6       30.04F
ROLLA          CLOUDY    45  29  53 S10       30.06R
SEDALIA        CLOUDY    48  30  49 S9        30.01F
WHITEMAN AFB   CLOUDY    46  34  64 SW15      29.96F
WARRENSBURG    CLOUDY    46  30  53 S9        29.99F
OSAGE BEACH    CLOUDY    45  29  53 S6        30.04F

$$
MOZ051-052-059>065-171100-
...EAST CENTRAL MISSOURI...

CITY           SKY/WX    TMP DP  RH WIND       PRES   REMARKS
ST LOUIS INTL  CLOUDY    45  30  55 S3        30.08S
SPIRIT OF STL  CLOUDY    42  32  67 CALM      30.08R
ST CHARLES     CLOUDY    40  30  67 E5        30.08R

$$
MOZ072>076-082>087-097>100-106>115-171100-
...SOUTH CENTRAL AND SOUTHEAST MISSOURI...

CITY           SKY/WX    TMP DP  RH WIND       PRES   REMARKS
CAPE GIRARDEAU CLOUDY    44  32  62 SW10      30.14S
FARMINGTON     CLOUDY    43  32  65 S8        30.10F
POPLAR BLUFF   LGT RAIN  42  39  89 SW7       30.14S
WEST PLAINS    LGT RAIN  41  39  93 S5        30.09F

$$



USA.gov is the U.S. government's official web portal to all federal, state and local government web resources and services.